Weather History for Jaipur / Sanganer, India

Change the Weather History Date:

Thursday, May 1, 2014

  Actual Average Record
Temperature  
Mean Temperature 96 °F -  
Max Temperature 109 °F - - ()
Min Temperature 84 °F - - ()
Cooling Degree Days 32    
Growing Degree Days 46 (Base 50)    
Moisture  
Dew Point 41 °F    
Average Humidity 13    
Maximum Humidity 20    
Minimum Humidity 4    
Precipitation  
Precipitation 0.00 in - - ()
Sea Level Pressure  
Sea Level Pressure 29.71 in    
Wind  
Wind Speed 6 mph ()    
Max Wind Speed 21 mph    
Max Gust Speed 25 mph    
Visibility 2.5 miles    
Events Rain , Thunderstorm    
T = Trace of Precipitation, MM = Missing Value Source: Averaged Metar Reports

Daily Weather History Graph

Daily Weather History Graph

Search for Another Location

Airport:

Trip Planner

Search our weather history database for the weather conditions in past years. The results will help you decide how hot, cold, wet, or windy it might be!

Date:

Astronomy

May. 01, 2014 Rise Set
Actual Time 5:48 AM IST 6:59 PM IST
Civil Twilight 5:24 AM IST 7:23 PM IST
Nautical Twilight 4:55 AM IST 7:52 PM IST
Astronomical Twilight 4:25 AM IST 8:22 PM IST
Moon 7:19 AM IST (5/1) 9:02 PM IST (5/1)
Length of Visible Light 13h 59m
Length of Day
13h 10m
Waxing Crescent, 5% of the Moon is Illuminated
May 1
Waxing Crescent
May 7
First Quarter
May 15
Full
May 21
Last Quarter
May 29
New

Hourly Weather History & Observations

Time (IST) Temp. Dew Point Humidity Pressure Visibility Wind Dir Wind Speed Gust Speed Precip Events Conditions
12:00 AM 93.2 °F 39.2 °F 15% 29.74 in 2.5 mi NNW 4.6 mph - N/A   Haze
1:00 AM 93.2 °F 39.2 °F 15% 29.74 in 2.5 mi NNW 3.5 mph - N/A   Haze
2:30 AM 90 °F 43 °F 11% 29.62 in 2 mi Calm Calm - -   Haze
3:00 AM 87.8 °F 41.0 °F 19% 29.71 in 2.5 mi NW 4.6 mph - N/A   Haze
5:00 AM 89.6 °F 37.4 °F 16% 29.74 in 2.5 mi NNW 8.1 mph - N/A   Haze
5:30 AM 89 °F 39 °F 9% 29.68 in 2 mi NNW 4.6 mph - -   Haze
6:00 AM 87.8 °F 39.2 °F 18% 29.77 in 2.5 mi NNW 4.6 mph - N/A   Haze
7:00 AM 87.8 °F 35.6 °F 16% 29.77 in 2.5 mi NW 5.8 mph - N/A   Haze
8:00 AM 91.4 °F 37.4 °F 15% 29.80 in 2.5 mi NNW 8.1 mph - N/A   Haze
8:30 AM 92 °F 42 °F 10% 29.70 in 2 mi NW 9.2 mph - -   Haze
8:30 AM 93.2 °F 39.2 °F 15% 29.80 in 2.5 mi NW 8.1 mph - N/A   Haze
9:30 AM 95.0 °F 46.4 °F 19% 29.80 in 3.1 mi NW 8.1 mph - N/A   Haze
10:00 AM 96.8 °F 48.2 °F 19% 29.83 in 3.1 mi Variable 9.2 mph - N/A   Haze
11:00 AM 100.4 °F 44.6 °F 15% 29.80 in 3.1 mi Variable 9.2 mph - N/A   Haze
11:30 AM 101 °F 44 °F 7% 29.68 in 2 mi NW 9.2 mph - -   Haze
12:00 PM 104.0 °F 41.0 °F 12% 29.80 in 3.1 mi NW 8.1 mph - N/A   Haze
1:00 PM 104.0 °F 39.2 °F 11% 29.74 in 3.7 mi Variable 5.8 mph - N/A   Partly Cloudy
2:00 PM 104.0 °F 35.6 °F 9% 29.71 in 3.7 mi NW 8.1 mph - N/A   Partly Cloudy
2:30 PM 107 °F 34 °F 4% 29.59 in 2 mi ENE 4.6 mph - -   Partly Cloudy
3:00 PM 105.8 °F 35.6 °F 9% 29.68 in 3.7 mi Variable 5.8 mph - N/A   Scattered Clouds
4:00 PM 105.8 °F 33.8 °F 8% 29.65 in 3.7 mi Variable 4.6 mph - N/A   Scattered Clouds
5:30 PM 103 °F 53 °F 12% 29.55 in 2 mi WSW 19.6 mph - -   Haze
5:30 PM 102.2 °F 39.2 °F 11% 29.65 in 3.1 mi WSW 12.7 mph 25.3 mph N/A   Haze
7:00 PM 96.8 °F 42.8 °F 16% 29.68 in 1.6 mi WSW 20.7 mph - N/A Thunderstorm Thunderstorm
8:30 PM 97 °F 36 °F 6% 29.60 in 1 mi South 4.6 mph - - Rain , Thunderstorm Thunderstorms and Rain
9:00 PM 95.0 °F 37.4 °F 13% 29.71 in 1.6 mi Variable 1.2 mph - N/A Thunderstorm Thunderstorm
10:00 PM 93.2 °F 41.0 °F 16% 29.71 in 1.6 mi Variable 2.3 mph - N/A   Haze
11:00 PM 89.6 °F 42.8 °F 20% 29.71 in 2.5 mi Variable 3.5 mph - N/A   Haze
11:30 PM 89 °F 53 °F 20% 29.61 in 2 mi WNW 3.5 mph - -   Haze